Skip Page Navigation
NASA JPL Caltech
NASA Logo - Jet Propulsion Laboratory + View the NASA Portal
+ Center for Near-Earth Object Studies
JPL Home Earth Solar System Stars & Galaxies Technology
JPL Solar System Dynamics
BODIES ORBITS EPHEMERIDES TOOLS PHYSICAL DATA DISCOVERY FAQ SITE MAP
JPL Small-Body Database Browser
Search: [ help ]  
233609 (2007 TV6)
Classification: Main-belt Asteroid          SPK-ID: 2233609
Ephemeris | Orbit Diagram | Orbital Elements | Mission Design | Physical Parameters | Discovery Circumstances | Close-Approach Data ]

[ hide orbit diagram ]

For accurate long-term ephemerides, please instead use our Horizons system.This orbit viewer was implemented using two-body methods, and hence should not be used for determining accurate long-term trajectories (over several years or decades) or planetary encounter circumstances.


[ revert to old Java-based viewer ]

Orbital Elements at Epoch 2459000.5 (2020-May-31.0) TDB
Reference: JPL 16 (heliocentric ecliptic J2000)
 Element Value Uncertainty (1-sigma)   Units 
e .2273477673960878 3.5447e-08  
a 2.340844327191877 1.5945e-08 au
q 1.808658595583006 8.3667e-08 au
i 4.158555574984808 4.4304e-06 deg
node 262.2380226432669 7.0106e-05 deg
peri 33.84839298658347 7.1116e-05 deg
M 254.1410893064569 1.5257e-05 deg
tp 2459385.164533816249
(2021-Jun-19.66453382)
5.8035e-05 TDB
period 1308.149037871181
3.58
1.3366e-05
3.659e-08
d
yr
n .2751980008224803 2.8118e-09 deg/d
Q 2.873030058800747 1.957e-08 au
  Orbit Determination Parameters
   # obs. used (total)      343  
   data-arc span      7015 days (19.21 yr)  
   first obs. used      2000-11-19  
   last obs. used      2020-02-03  
   planetary ephem.      DE431  
   SB-pert. ephem.      SB431-N16  
   condition code      0  
   norm. resid. RMS      .5776  
   source      ORB  
   producer      Otto Matic  
   solution date      2020-Feb-25 07:21:51  

Additional Information
 Earth MOID = .794486 au 
 Jupiter MOID = 2.33931 au 
 T_jup = 3.526 
[ show covariance matrix ]

Ephemeris | Orbit Diagram | Orbital Elements | Mission Design | Physical Parameters | Discovery Circumstances | Close-Approach Data ]

Physical Parameter Table
Parameter Symbol Value Units Sigma Reference Notes
absolute magnitude H 16.8   n/a MPO470487  
diameter diameter 2.473 km 0.207 urn:nasa:pds:neowise_diameters_albedos::2.0[mainbelt] (http://adsabs.harvard.edu/abs/2011ApJ...741...68M)  
geometric albedo albedo 0.066   0.012 urn:nasa:pds:neowise_diameters_albedos::2.0[mainbelt] (http://adsabs.harvard.edu/abs/2011ApJ...741...68M)  

233609 (2007 TV6)          Discovered 2007-Oct-06 by La Sagra at La Sagra
Reference: 20100228/Numbers.arcLast Updated: 2010-03-03

[ show close-approach data ]
Alternate Designations
 2007 TV6 = 2006 EP61 
Ephemeris | Orbit Diagram | Orbital Elements | Mission Design | Physical Parameters | Discovery Circumstances | Close-Approach Data ]
ABOUT SSD CREDITS/AWARDS PRIVACY/COPYRIGHT GLOSSARY LINKS
FirstGov 2020-Sep-27 05:08 UT
(server date/time)  
NASA Home Page
Site Manager:   Ryan S. Park
Webmaster  Alan B. Chamberlin